| time (UTC) | temp F | wind direction | speed MPH | gust MPH | rain 1hr in | rain 24hr in | rain mn in | humidity % | barometer mb |
| 20260504231503 | 30 | 279 | 0.0 | 0.0 | 0.00 | 0.07 | 0.00 | 81 | 991.3 |
| 20260504231003 | 30 | 279 | 0.0 | 0.0 | 0.00 | 0.07 | 0.00 | 82 | 991.3 |
| 20260504230004 | 30 | 279 | 0.0 | 0.0 | 0.00 | 0.07 | 0.00 | 79 | 991.2 |
| 20260504225503 | 31 | 278 | 0.0 | 0.0 | 0.00 | 0.07 | 0.00 | 79 | 991.2 |
| 20260504225004 | 31 | 278 | 0.0 | 0.0 | 0.00 | 0.07 | 0.00 | 79 | 991.3 |
| 20260504224504 | 31 | 278 | 0.0 | 0.0 | 0.00 | 0.07 | 0.00 | 79 | 991.2 |
| 20260504224003 | 32 | 280 | 0.0 | 0.0 | 0.00 | 0.07 | 0.00 | 78 | 991.2 |
| 20260504223004 | 32 | 283 | 0.0 | 0.0 | 0.00 | 0.07 | 0.00 | 77 | 991.1 |
| 20260504222503 | 33 | 284 | 0.0 | 0.0 | 0.00 | 0.07 | 0.00 | 75 | 991.2 |
| 20260504222003 | 33 | 284 | 0.0 | 0.0 | 0.00 | 0.07 | 0.00 | 76 | 991.1 |
| 20260504221503 | 33 | 288 | 0.0 | 0.0 | 0.00 | 0.07 | 0.00 | 75 | 991.1 |
| 20260504221003 | 34 | 285 | 0.0 | 0.0 | 0.00 | 0.07 | 0.00 | 75 | 991.1 |
| 20260504220504 | 34 | 272 | 0.0 | 0.0 | 0.00 | 0.07 | 0.00 | 81 | 991.1 |
| 20260504220003 | 34 | 288 | 0.0 | 0.0 | 0.00 | 0.07 | 0.00 | 76 | 991.1 |
| 20260504215503 | 34 | 296 | 0.0 | 0.0 | 0.00 | 0.07 | 0.07 | 77 | 991.1 |
| 20260504215003 | 34 | 292 | 0.0 | 0.0 | 0.00 | 0.07 | 0.07 | 76 | 991.1 |
| 20260504214503 | 34 | 268 | 0.0 | 0.0 | 0.00 | 0.07 | 0.07 | 77 | 991.1 |
| 20260504214004 | 33 | 254 | 0.0 | 0.0 | 0.00 | 0.07 | 0.07 | 76 | 991.1 |
| 20260504213503 | 33 | 270 | 0.0 | 0.0 | 0.00 | 0.07 | 0.07 | 76 | 991.1 |
| 20260504213003 | 33 | 261 | 0.0 | 0.0 | 0.00 | 0.07 | 0.07 | 76 | 991.1 |
| 20260504212003 | 34 | 247 | 0.0 | 5.0 | 0.00 | 0.07 | 0.07 | 76 | 991.1 |
| 20260504211504 | 34 | 230 | 1.0 | 7.0 | 0.00 | 0.07 | 0.07 | 75 | 991.1 |
| 20260504211003 | 34 | 256 | 0.0 | 0.0 | 0.00 | 0.07 | 0.07 | 75 | 991.1 |
| 20260504210503 | 34 | 283 | 1.0 | 9.0 | 0.00 | 0.07 | 0.07 | 75 | 991.1 |
| 20260504210004 | 34 | 261 | 0.0 | 0.0 | 0.00 | 0.07 | 0.07 | 75 | 991.0 |
| 20260504205503 | 34 | 275 | 2.0 | 9.0 | 0.00 | 0.07 | 0.07 | 75 | 991.1 |
| 20260504205003 | 34 | 271 | 0.0 | 0.0 | 0.00 | 0.07 | 0.07 | 75 | 991.1 |
| 20260504204503 | 34 | 275 | 0.0 | 0.0 | 0.00 | 0.07 | 0.07 | 73 | 991.1 |
| 20260504204004 | 34 | 272 | 0.0 | 0.0 | 0.00 | 0.07 | 0.07 | 73 | 991.0 |
| 20260504203504 | 35 | 264 | 0.0 | 0.0 | 0.00 | 0.07 | 0.07 | 72 | 990.9 |
| 20260504203003 | 35 | 259 | 0.0 | 0.0 | 0.00 | 0.07 | 0.07 | 71 | 991.0 |
| 20260504202503 | 35 | 280 | 0.0 | 0.0 | 0.00 | 0.07 | 0.07 | 70 | 990.9 |
| 20260504202003 | 36 | 242 | 0.0 | 0.0 | 0.00 | 0.07 | 0.07 | 69 | 990.9 |
| 20260504201504 | 36 | 237 | 0.0 | 0.0 | 0.00 | 0.07 | 0.07 | 68 | 990.9 |
| 20260504200504 | 36 | 263 | 0.0 | 0.0 | 0.00 | 0.07 | 0.07 | 66 | 990.8 |
| 20260504200004 | 36 | 227 | 0.0 | 0.0 | 0.00 | 0.07 | 0.07 | 65 | 990.8 |
| 20260504195503 | 36 | 246 | 0.0 | 0.0 | 0.00 | 0.07 | 0.07 | 63 | 990.8 |
| 20260504194503 | 37 | 283 | 0.0 | 0.0 | 0.00 | 0.07 | 0.07 | 61 | 990.8 |
| 20260504194004 | 37 | 270 | 0.0 | 0.0 | 0.00 | 0.07 | 0.07 | 61 | 990.8 |
| 20260504193503 | 37 | 257 | 3.0 | 8.0 | 0.00 | 0.07 | 0.07 | 60 | 990.8 |
| 20260504193004 | 38 | 288 | 1.0 | 7.0 | 0.00 | 0.07 | 0.07 | 59 | 990.7 |
| 20260504192503 | 38 | 278 | 3.0 | 8.0 | 0.00 | 0.07 | 0.07 | 59 | 990.7 |
| 20260504192003 | 38 | 291 | 3.0 | 7.0 | 0.00 | 0.07 | 0.07 | 59 | 990.8 |
| 20260504191504 | 38 | 290 | 5.0 | 10.0 | 0.00 | 0.07 | 0.07 | 59 | 990.7 |
| 20260504191004 | 38 | 278 | 3.0 | 8.0 | 0.00 | 0.07 | 0.07 | 59 | 990.8 |
| 20260504190003 | 39 | 282 | 0.0 | 0.0 | 0.00 | 0.07 | 0.07 | 56 | 990.9 |
| 20260504185503 | 39 | 297 | 0.0 | 0.0 | 0.00 | 0.07 | 0.07 | 55 | 990.8 |
| 20260504185004 | 39 | 286 | 1.0 | 8.0 | 0.00 | 0.07 | 0.07 | 55 | 990.8 |
| 20260504184504 | 40 | 272 | 5.0 | 9.0 | 0.00 | 0.07 | 0.07 | 54 | 990.8 |
| 20260504184004 | 40 | 238 | 6.0 | 12.0 | 0.00 | 0.07 | 0.07 | 53 | 990.7 |
| 20260504183503 | 40 | 290 | 5.0 | 9.0 | 0.00 | 0.07 | 0.07 | 53 | 990.8 |
| 20260504183003 | 40 | 277 | 5.0 | 12.0 | 0.00 | 0.07 | 0.07 | 53 | 990.8 |
| 20260504182503 | 41 | 288 | 6.0 | 13.0 | 0.00 | 0.07 | 0.07 | 53 | 990.7 |
| 20260504182003 | 41 | 279 | 0.0 | 5.0 | 0.00 | 0.07 | 0.07 | 55 | 990.7 |
| 20260504181503 | 41 | 291 | 5.0 | 9.0 | 0.00 | 0.07 | 0.07 | 54 | 990.7 |
| 20260504180503 | 42 | 271 | 6.0 | 12.0 | 0.00 | 0.07 | 0.07 | 52 | 990.7 |
| 20260504180003 | 42 | 265 | 1.0 | 10.0 | 0.00 | 0.07 | 0.07 | 53 | 990.7 |
| 20260504175503 | 42 | 306 | 3.0 | 14.0 | 0.00 | 0.07 | 0.07 | 52 | 990.8 |
| 20260504175004 | 42 | 265 | 7.0 | 12.0 | 0.00 | 0.07 | 0.07 | 51 | 990.7 |
| 20260504174504 | 42 | 288 | 2.0 | 12.0 | 0.00 | 0.07 | 0.07 | 51 | 990.7 |
| 20260504174003 | 42 | 261 | 0.0 | 3.0 | 0.00 | 0.07 | 0.07 | 51 | 990.6 |
| 20260504173503 | 43 | 302 | 3.0 | 10.0 | 0.00 | 0.07 | 0.07 | 50 | 990.6 |
| 20260504173003 | 43 | 279 | 5.0 | 12.0 | 0.00 | 0.07 | 0.07 | 49 | 990.5 |
| 20260504172503 | 43 | 291 | 7.0 | 12.0 | 0.00 | 0.07 | 0.07 | 49 | 990.5 |
| 20260504172003 | 44 | 284 | 5.0 | 15.0 | 0.00 | 0.07 | 0.07 | 49 | 990.6 |
| 20260504171504 | 44 | 303 | 1.0 | 10.0 | 0.00 | 0.07 | 0.07 | 49 | 990.6 |
| 20260504171004 | 44 | 301 | 0.0 | 10.0 | 0.00 | 0.07 | 0.07 | 48 | 990.6 |
| 20260504170504 | 44 | 277 | 5.0 | 14.0 | 0.00 | 0.07 | 0.07 | 47 | 990.6 |
| 20260504151003 | 45 | 215 | 0.0 | 5.0 | 0.00 | 0.07 | 0.07 | 54 | 990.5 |
| 20260504150504 | 45 | 235 | 0.0 | 5.0 | 0.00 | 0.07 | 0.07 | 53 | 990.6 |
| 20260504141003 | 46 | 169 | 0.0 | 6.0 | 0.00 | 0.07 | 0.07 | 60 | 991.0 |
| 20260504140503 | 45 | 192 | 0.0 | 7.0 | 0.00 | 0.07 | 0.07 | 61 | 991.2 |
| 20260504130503 | 45 | 283 | 2.0 | 7.0 | 0.00 | 0.07 | 0.07 | 62 | 991.0 |
| 20260504110503 | 36 | 245 | 0.0 | 8.0 | 0.04 | 0.07 | 0.07 | 87 | 992.6 |
| 20260504100503 | 43 | 249 | 1.0 | 6.0 | 0.00 | 0.03 | 0.03 | 74 | 992.4 |
| 20260504082004 | 39 | 174 | 3.0 | 8.0 | 0.00 | 0.03 | 0.03 | 89 | 993.2 |
| 20260504081503 | 38 | 136 | 0.0 | 0.0 | 0.00 | 0.03 | 0.03 | 89 | 993.2 |
| 20260504081003 | 38 | 135 | 0.0 | 0.0 | 0.00 | 0.03 | 0.03 | 89 | 993.3 |
| 20260504080504 | 38 | 135 | 0.0 | 0.0 | 0.00 | 0.03 | 0.03 | 89 | 993.4 |
| 20260504050004 | 33 | 124 | 0.0 | 5.0 | 0.00 | 0.00 | 0.00 | 89 | 995.0 |
| 20260504045503 | 33 | 129 | 2.0 | 6.0 | 0.00 | 0.00 | 0.00 | 89 | 995.2 |
| 20260504045004 | 33 | 172 | 0.0 | 0.0 | 0.00 | 0.00 | 0.00 | 89 | 995.4 |
| 20260504044504 | 33 | 172 | 0.0 | 0.0 | 0.00 | 0.00 | 0.00 | 89 | 995.6 |
| 20260504043504 | 33 | 172 | 0.0 | 0.0 | 0.00 | 0.00 | 0.00 | 89 | 995.8 |
| 20260504043004 | 33 | 172 | 0.0 | 0.0 | 0.00 | 0.00 | 0.00 | 88 | 995.9 |
| 20260504042504 | 33 | 172 | 0.0 | 0.0 | 0.00 | 0.00 | 0.00 | 88 | 996.1 |
| 20260504042003 | 34 | 172 | 0.0 | 0.0 | 0.00 | 0.00 | 0.00 | 87 | 996.1 |
| 20260504041503 | 34 | 172 | 0.0 | 0.0 | 0.00 | 0.00 | 0.00 | 87 | 996.0 |
| 20260504041003 | 34 | 172 | 0.0 | 0.0 | 0.00 | 0.00 | 0.00 | 86 | 996.1 |
| 20260504040504 | 34 | 172 | 0.0 | 0.0 | 0.00 | 0.00 | 0.00 | 85 | 996.1 |
| 20260504040004 | 35 | 172 | 0.0 | 6.0 | 0.00 | 0.00 | 0.00 | 83 | 996.2 |
| 20260504035504 | 35 | 149 | 1.0 | 9.0 | 0.00 | 0.00 | 0.00 | 82 | 996.1 |
| 20260504035004 | 35 | 156 | 3.0 | 8.0 | 0.00 | 0.00 | 0.00 | 80 | 996.2 |
| 20260504034503 | 35 | 149 | 1.0 | 7.0 | 0.00 | 0.00 | 0.00 | 79 | 996.3 |
| 20260504034004 | 35 | 149 | 0.0 | 7.0 | 0.00 | 0.00 | 0.00 | 79 | 996.3 |
| 20260504033503 | 35 | 157 | 4.0 | 7.0 | 0.00 | 0.00 | 0.00 | 79 | 996.4 |
| 20260504032503 | 35 | 175 | 1.0 | 7.0 | 0.00 | 0.00 | 0.00 | 78 | 996.6 |
| 20260504032003 | 35 | 169 | 2.0 | 12.0 | 0.00 | 0.00 | 0.00 | 78 | 996.7 |
| 20260504031003 | 35 | 179 | 1.0 | 9.0 | 0.00 | 0.00 | 0.00 | 78 | 996.7 |
| 20260504030503 | 35 | 168 | 3.0 | 12.0 | 0.00 | 0.00 | 0.00 | 77 | 996.8 |
| 20260504030004 | 35 | 146 | 1.0 | 8.0 | 0.00 | 0.00 | 0.00 | 75 | 996.9 |
| 20260504025504 | 35 | 172 | 1.0 | 9.0 | 0.00 | 0.00 | 0.00 | 74 | 997.0 |
| 20260504025003 | 35 | 155 | 1.0 | 8.0 | 0.00 | 0.00 | 0.00 | 73 | 997.0 |
| 20260504023503 | 34 | 126 | 0.0 | 0.0 | 0.00 | 0.00 | 0.00 | 72 | 997.2 |
| 20260504023005 | 34 | 125 | 0.0 | 0.0 | 0.00 | 0.00 | 0.00 | 74 | 997.3 |
| 20260504022503 | 33 | 183 | 1.0 | 6.0 | 0.00 | 0.00 | 0.00 | 74 | 997.3 |
| 20260504022004 | 33 | 132 | 0.0 | 3.0 | 0.00 | 0.00 | 0.00 | 73 | 997.4 |
| 20260504021505 | 33 | 167 | 0.0 | 1.0 | 0.00 | 0.00 | 0.00 | 74 | 997.5 |
| 20260504020503 | 32 | 184 | 0.0 | 0.0 | 0.00 | 0.00 | 0.00 | 74 | 997.6 |
| 20260504020004 | 32 | 184 | 0.0 | 0.0 | 0.00 | 0.00 | 0.00 | 74 | 997.7 |
| 20260504015504 | 31 | 184 | 0.0 | 0.0 | 0.00 | 0.00 | 0.00 | 74 | 997.7 |
| 20260504015004 | 31 | 184 | 0.0 | 0.0 | 0.00 | 0.00 | 0.00 | 74 | 997.8 |
| 20260504014505 | 31 | 184 | 0.0 | 0.0 | 0.00 | 0.00 | 0.00 | 75 | 997.8 |
| 20260504014004 | 31 | 184 | 0.0 | 0.0 | 0.00 | 0.00 | 0.00 | 75 | 997.8 |
| 20260504013503 | 31 | 184 | 0.0 | 0.0 | 0.00 | 0.00 | 0.00 | 75 | 997.9 |
| 20260504013004 | 30 | 184 | 0.0 | 0.0 | 0.00 | 0.00 | 0.00 | 76 | 998.0 |
| 20260504012504 | 30 | 184 | 0.0 | 0.0 | 0.00 | 0.00 | 0.00 | 76 | 998.0 |
| 20260504012003 | 29 | 184 | 0.0 | 0.0 | 0.00 | 0.00 | 0.00 | 77 | 998.1 |
| 20260504011503 | 29 | 202 | 0.0 | 0.0 | 0.00 | 0.00 | 0.00 | 77 | 998.2 |
| 20260504011003 | 29 | 240 | 0.0 | 0.0 | 0.00 | 0.00 | 0.00 | 77 | 998.3 |
| 20260504010503 | 29 | 240 | 0.0 | 0.0 | 0.00 | 0.00 | 0.00 | 77 | 998.3 |
| 20260504010004 | 29 | 240 | 0.0 | 0.0 | 0.00 | 0.00 | 0.00 | 77 | 998.3 |
| 20260504004503 | 29 | 240 | 0.0 | 0.0 | 0.00 | 0.00 | 0.00 | 78 | 998.5 |
| 20260504003504 | 28 | 240 | 0.0 | 0.0 | 0.00 | 0.00 | 0.00 | 79 | 998.5 |
| 20260504003003 | 27 | 240 | 0.0 | 0.0 | 0.00 | 0.00 | 0.00 | 80 | 998.5 |
| 20260504002504 | 27 | 240 | 0.0 | 0.0 | 0.00 | 0.00 | 0.00 | 81 | 998.6 |
| 20260504002003 | 27 | 240 | 0.0 | 0.0 | 0.00 | 0.00 | 0.00 | 80 | 998.7 |
| 20260504001504 | 27 | 240 | 0.0 | 0.0 | 0.00 | 0.00 | 0.00 | 79 | 998.7 |
| 20260504001003 | 27 | 240 | 0.0 | 0.0 | 0.00 | 0.00 | 0.00 | 79 | 998.7 |
| 20260504000503 | 28 | 240 | 0.0 | 0.0 | 0.00 | 0.00 | 0.00 | 78 | 998.8 |
| 20260504000006 | 28 | 240 | 0.0 | 0.0 | 0.00 | 0.00 | 0.00 | 78 | 998.8 |
| 20260503235504 | 28 | 240 | 0.0 | 0.0 | 0.00 | 0.00 | 0.00 | 78 | 998.8 |
| 20260503235005 | 28 | 240 | 0.0 | 0.0 | 0.00 | 0.00 | 0.00 | 78 | 998.9 |
| 20260503234504 | 28 | 240 | 0.0 | 0.0 | 0.00 | 0.00 | 0.00 | 78 | 999.0 |
| 20260503234004 | 28 | 240 | 0.0 | 0.0 | 0.00 | 0.00 | 0.00 | 79 | 999.0 |
| 20260503233505 | 28 | 240 | 0.0 | 0.0 | 0.00 | 0.00 | 0.00 | 80 | 999.1 |
| 20260503233005 | 28 | 240 | 0.0 | 0.0 | 0.00 | 0.00 | 0.00 | 80 | 999.2 |
| 20260503232505 | 28 | 240 | 0.0 | 0.0 | 0.00 | 0.00 | 0.00 | 80 | 999.2 |
| 20260503232004 | 28 | 240 | 0.0 | 0.0 | 0.00 | 0.00 | 0.00 | 80 | 999.3 |